Location: DARK SKY Beskydy - Park tmavé oblohy, www.darkskybeskydy.cz
(49.4926°N, 18.5016°E)
Time: 11:01:56
(UTC+02:00)

Vanguard 1 - Pass Details

Date: 23 February 2024
Orbit: 653 x 3825 km, 34.2° (Epoch: 12 April)

Event Time Altitude Azimuth Distance (km) Brightness Sun altitude
Rises 17:31:51 0° 186° (S) 5,201 14.0 -3.0°
Reaches altitude 10° 17:36:18 10° 170° (S) 4,720 13.6 -3.8°
Maximum altitude 17:45:11 20° 130° (SE) 4,841 13.2 -5.2°
Drops below altitude 10° 17:56:54 10° 94° (E) 6,468 13.6 -7.1°
Enters shadow 17:58:55 - 90° (E) 6,815 13.7 -7.4°
Sets 18:04:46 0° 81° (E) 7,835 - -8.3°
